Location: G�rlitz
(51.1670°N, 15.0000°E)
Time: 20:16:32
(UTC+01:00)

Envisat - Pass Details

Date: 17 February 2026
Orbit: 761 x 763 km, 98.4° (Epoch: 11 March)

Event Time Altitude Azimuth Distance (km) Brightness Sun altitude
Rises 03:35:13 0° 10° (N) 3,238 6.7 -33.6°
Reaches altitude 10° 03:37:37 10° 4° (N) 2,307 5.8 -33.3°
Enters shadow 03:38:48 17° 359° (N) 1,869 5.2 -33.1°
